Showing default

COSMOS 2461 (GLONASS), 36401

Orbit data source: Space-Track

COSMOS 2461 (GLONASS), 36401 is a Commonwealth of Independent States-origin payload satellite in MEO that was launched on Mon, 01 Mar 2010 UTC via a PROTON-M/DM-2 launch vehicle from the Tyuratam Missile And Space Complex (TTMTR). Payload-class satellites include a variety of spacecraft equipped with specific instruments for various scientific and technological missions. These include communications satellites like Starlink; space stations such as the ISS; scientific satellites like the Hubble; Earth observation satellites from companies like Planet Labs, Umbra, and HawkEye 360; GPS; miniature CubeSats for education and research; and military/defense satellites.

Loading next visibility...
Identifier
36401, 2010-007B
Orbit
MEO
Country
Flag of CISCIS
Related business
Manufacturer
Resehetnev ISS
Mission
Non-operational Defense Navigation
Bus & Motor
URAGAN, Unknown motor
Mass
1,450 kg wet, ~1,200 kg dry
Launch date (UTC)
2010-03-01 (16 years ago)
Launch vehicle
PROTON-M/DM-2
Launch site
Tyuratam Missile And Space Complex (TTMTR)
Object type
Payload
Rocket body
Debris
Shape & HBR
Cyl + 1 Ant + 2 Pan, 3.9 m
Radar Cross Section
8.467 m², Large (>1 m²)

Expand to show TLE details & history
Last TLE update: 1 day ago

TLE from 1 day ago
0 COSMOS 2461 (GLONASS)
1 36401U 10007B   25287.30425803 -.00000037  00000-0  00000-0 0  9992
2 36401  65.5753 322.8512 0019674 355.4588  84.0919  2.13106901121586
Epoch: 2025-10-14T07:18Z
TLE epoch observation values (Epoch: 2025-10-14T07:18:07.893Z)
Latitude
63.66016°
Longitude
-103.39736°
Altitude
19,134.669 km
Speed
3.955 km/s
True Right ascension
01h 56m 55s
True Declination
63° 37' 19"
Sunlit
Object was in daylight at epoch
Visualization orbit readout
Latitude
Unknown
Longitude
Unknown
Altitude
Unknown
Speed
Unknown
Apparent Right ascension
Unknown
Apparent Declination
Unknown
Sunlit
N/A
Visualization observer readout
Local Sidereal Time
07:04:14
Azimuth
Unknown
Elevation
Unknown
Doppler factor
Unknown
Orbital elements
Apogee altitude
19,179.274 km
Perigee altitude
19,078.909 km
Semi-major axis
25,507.229 km
Eccentricity
0.00197
Inclination
65.5753°
RAAN
322.8512°
Arg. of periapsis
355.4588°
True anomaly
84.31621°
Mean anomaly
84.0919°
Eccentric anomaly
84.20405°
Mean motion
0.53278 °/min
Orbital period
675.7 mins
BSTAR
0
Loading maneuver chart data...
Computing Atmospheric mass density...
Loading historical data...
Loading historical data...
Loading historical data...
Loading historical data...
Loading historical data...
Loading historical data...
Loading historical data...

Documentation

Showing up to 5 results
|